| time (UTC) | temp F | wind direction | speed MPH | gust MPH | rain 1hr in | rain 24hr in | rain mn in | humidity % | barometer mb |
| 20260508081530 | 61 | 98 | 1.0 | 5.0 | 0.00 | 0.00 | 0.00 | 48 | 1018.1 |
| 20260508080016 | 60 | 92 | 1.0 | 6.0 | 0.00 | 0.00 | 0.00 | 51 | 1018.3 |
| 20260508074513 | 61 | 106 | 0.0 | 6.0 | 0.00 | 0.00 | 0.00 | 50 | 1018.4 |
| 20260508073009 | 61 | 55 | 1.0 | 8.0 | 0.00 | 0.00 | 0.00 | 41 | 1018.6 |
| 20260508071509 | 61 | 62 | 1.0 | 7.0 | 0.00 | 0.00 | 0.00 | 37 | 1018.7 |
| 20260508070007 | 61 | 319 | 2.0 | 9.0 | 0.00 | 0.00 | 0.00 | 36 | 1018.8 |
| 20260508064507 | 61 | 95 | 3.0 | 9.0 | 0.00 | 0.00 | 0.00 | 35 | 1018.8 |
| 20260508063003 | 61 | 65 | 1.0 | 8.0 | 0.00 | 0.00 | 0.00 | 39 | 1019.0 |
| 20260508061503 | 62 | 108 | 1.0 | 10.0 | 0.00 | 0.00 | 0.00 | 34 | 1019.0 |
| 20260508060046 | 61 | 91 | 1.0 | 8.0 | 0.00 | 0.00 | 0.00 | 33 | 1019.0 |
| 20260508054545 | 61 | 99 | 3.0 | 11.0 | 0.00 | 0.00 | 0.00 | 33 | 1019.2 |
| 20260508053053 | 61 | 98 | 1.0 | 9.0 | 0.00 | 0.00 | 0.00 | 35 | 1019.3 |
| 20260508051606 | 62 | 76 | 1.0 | 7.0 | 0.00 | 0.00 | 0.00 | 36 | 1019.4 |
| 20260508050040 | 62 | 88 | 1.0 | 10.0 | 0.00 | 0.00 | 0.00 | 37 | 1019.6 |
| 20260508044539 | 61 | 124 | 0.0 | 7.0 | 0.00 | 0.00 | 0.00 | 39 | 1019.4 |
| 20260508043034 | 60 | 105 | 1.0 | 8.0 | 0.00 | 0.00 | 0.00 | 39 | 1019.3 |
| 20260508041532 | 61 | 120 | 0.0 | 5.0 | 0.00 | 0.00 | 0.00 | 40 | 1019.2 |
| 20260508040018 | 60 | 193 | 0.0 | 3.0 | 0.00 | 0.00 | 0.00 | 44 | 1018.9 |
| 20260508034523 | 60 | 165 | 0.0 | 6.0 | 0.00 | 0.00 | 0.00 | 46 | 1018.7 |
| 20260508033024 | 60 | 145 | 0.0 | 3.0 | 0.00 | 0.00 | 0.00 | 51 | 1018.6 |
| 20260508031517 | 60 | 197 | 0.0 | 6.0 | 0.00 | 0.00 | 0.00 | 56 | 1018.6 |
| 20260508030018 | 60 | 165 | 1.0 | 6.0 | 0.00 | 0.00 | 0.00 | 55 | 1018.4 |
| 20260508024521 | 61 | 184 | 0.0 | 3.0 | 0.00 | 0.00 | 0.00 | 57 | 1018.3 |
| 20260508023016 | 61 | 161 | 0.0 | 5.0 | 0.00 | 0.00 | 0.00 | 55 | 1018.3 |
| 20260508021520 | 62 | 181 | 0.0 | 4.0 | 0.00 | 0.00 | 0.00 | 53 | 1018.3 |
| 20260508020106 | 63 | 188 | 0.0 | 5.0 | 0.00 | 0.00 | 0.00 | 51 | 1018.3 |
| 20260508014555 | 65 | 98 | 1.0 | 6.0 | 0.00 | 0.00 | 0.00 | 49 | 1018.2 |
| 20260508013041 | 65 | 110 | 0.0 | 6.0 | 0.00 | 0.00 | 0.00 | 51 | 1018.4 |
| 20260508011547 | 66 | 108 | 0.0 | 5.0 | 0.00 | 0.00 | 0.00 | 51 | 1018.4 |
| 20260508010055 | 0 | 0.0 | 0.0 | 0.00 | 0.00 | 0.00 | 1018.4 | ||
| 20260508004534 | 0 | 0.0 | 0.0 | 0.00 | 0.00 | 0.00 | 1018.3 | ||
| 20260508003029 | 0 | 0.0 | 0.0 | 0.00 | 0.00 | 0.00 | 1018.3 | ||
| 20260508001524 | 0 | 0.0 | 0.0 | 0.00 | 0.00 | 0.00 | 1018.4 | ||
| 20260508000022 | 0 | 0.0 | 0.0 | 0.00 | 0.00 | 0.00 | 1018.4 | ||
| 20260507234518 | 0 | 0.0 | 0.0 | 0.00 | 0.00 | 0.00 | 1018.4 | ||
| 20260507233055 | 0 | 0.0 | 0.0 | 0.00 | 0.00 | 0.00 | 1018.4 | ||
| 20260507231551 | 0 | 0.0 | 0.0 | 0.00 | 0.00 | 0.00 | 1018.4 | ||
| 20260507230048 | 0 | 0.0 | 0.0 | 0.00 | 0.00 | 0.00 | 1018.4 | ||
| 20260507224533 | 0 | 0.0 | 0.0 | 0.00 | 0.00 | 0.00 | 1018.4 | ||
| 20260507223049 | 0 | 0.0 | 0.0 | 0.00 | 0.00 | 0.00 | 1018.5 | ||
| 20260507221522 | 0 | 0.0 | 0.0 | 0.00 | 0.00 | 0.00 | 1018.7 | ||
| 20260507220016 | 0 | 0.0 | 0.0 | 0.00 | 0.00 | 0.00 | 1018.9 | ||
| 20260507214512 | 0 | 0.0 | 0.0 | 0.00 | 0.00 | 0.00 | 1019.0 | ||
| 20260507213008 | 0 | 0.0 | 0.0 | 0.00 | 0.00 | 0.00 | 1019.2 | ||
| 20260507211504 | 0 | 0.0 | 0.0 | 0.00 | 0.00 | 0.00 | 1019.3 | ||
| 20260507210050 | 0 | 0.0 | 0.0 | 0.00 | 0.00 | 0.00 | 1019.4 | ||
| 20260507204545 | 0 | 0.0 | 0.0 | 0.00 | 0.00 | 0.00 | 1019.5 | ||
| 20260507203043 | 0 | 0.0 | 0.0 | 0.00 | 0.00 | 0.00 | 1019.5 | ||
| 20260507201539 | 0 | 0.0 | 0.0 | 0.00 | 0.00 | 0.00 | 1019.6 | ||
| 20260507200048 | 0 | 0.0 | 0.0 | 0.00 | 0.00 | 0.00 | 1019.6 | ||
| 20260507194528 | 0 | 0.0 | 0.0 | 0.00 | 0.00 | 0.00 | 1019.7 | ||
| 20260507193038 | 0 | 0.0 | 0.0 | 0.00 | 0.00 | 0.00 | 1019.8 | ||
| 20260507191520 | 0 | 0.0 | 0.0 | 0.00 | 0.00 | 0.00 | 1020.0 | ||
| 20260507190112 | 0 | 0.0 | 0.0 | 0.00 | 0.00 | 0.00 | 1020.0 | ||
| 20260507184550 | 0 | 0.0 | 0.0 | 0.00 | 0.00 | 0.00 | 1020.3 | ||
| 20260507183046 | 0 | 0.0 | 0.0 | 0.00 | 0.00 | 0.00 | 1020.4 | ||
| 20260507181534 | 0 | 0.0 | 0.0 | 0.00 | 0.00 | 0.00 | 1020.4 | ||
| 20260507180026 | 0 | 0.0 | 0.0 | 0.00 | 0.00 | 0.00 | 1020.3 | ||
| 20260507174523 | 0 | 0.0 | 0.0 | 0.00 | 0.00 | 0.00 | 1020.4 | ||
| 20260507173017 | 0 | 0.0 | 0.0 | 0.00 | 0.00 | 0.00 | 1020.4 | ||
| 20260507171512 | 0 | 0.0 | 0.0 | 0.00 | 0.00 | 0.00 | 1020.4 | ||
| 20260507170010 | 0 | 0.0 | 0.0 | 0.00 | 0.00 | 0.00 | 1020.5 | ||
| 20260507164505 | 0 | 0.0 | 0.0 | 0.00 | 0.00 | 0.00 | 1020.5 | ||
| 20260507163002 | 0 | 0.0 | 0.0 | 0.00 | 0.00 | 0.00 | 1020.7 | ||
| 20260507161550 | 0 | 0.0 | 0.0 | 0.00 | 0.00 | 0.00 | 1020.8 | ||
| 20260507160040 | 0 | 0.0 | 0.0 | 0.00 | 0.00 | 0.00 | 1020.8 | ||
| 20260507154532 | 0 | 0.0 | 0.0 | 0.00 | 0.00 | 0.00 | 1021.0 | ||
| 20260507153034 | 64 | 152 | 0.0 | 1.0 | 0.00 | 0.00 | 0.00 | 42 | 1021.1 |
| 20260507151512 | 60 | 165 | 0.0 | 1.0 | 0.00 | 0.00 | 0.00 | 44 | 1021.2 |
| 20260507150010 | 58 | 174 | 0.0 | 2.0 | 0.00 | 0.00 | 0.00 | 46 | 1021.3 |
| 20260507144508 | 56 | 153 | 0.0 | 2.0 | 0.00 | 0.00 | 0.00 | 52 | 1021.2 |
| 20260507143004 | 55 | 175 | 0.0 | 2.0 | 0.00 | 0.00 | 0.00 | 58 | 1021.3 |
| 20260507141502 | 55 | 176 | 1.0 | 2.0 | 0.00 | 0.00 | 0.00 | 56 | 1021.4 |
| 20260507140002 | 54 | 177 | 0.0 | 2.0 | 0.00 | 0.00 | 0.00 | 53 | 1021.3 |
| 20260507134552 | 53 | 180 | 1.0 | 2.0 | 0.00 | 0.00 | 0.00 | 54 | 1021.3 |
| 20260507133051 | 53 | 180 | 1.0 | 2.0 | 0.00 | 0.00 | 0.00 | 54 | 1021.2 |
| 20260507131548 | 53 | 181 | 1.0 | 2.0 | 0.00 | 0.00 | 0.00 | 53 | 1021.3 |
| 20260507130059 | 53 | 184 | 1.0 | 3.0 | 0.00 | 0.00 | 0.00 | 53 | 1021.3 |
| 20260507124607 | 53 | 175 | 1.0 | 2.0 | 0.00 | 0.00 | 0.00 | 54 | 1021.3 |
| 20260507123103 | 53 | 181 | 1.0 | 2.0 | 0.00 | 0.00 | 0.00 | 53 | 1021.3 |
| 20260507121556 | 54 | 182 | 1.0 | 2.0 | 0.00 | 0.00 | 0.00 | 53 | 1021.3 |
| 20260507120043 | 54 | 184 | 1.0 | 3.0 | 0.00 | 0.00 | 0.00 | 53 | 1021.6 |
| 20260507114529 | 54 | 183 | 1.0 | 3.0 | 0.00 | 0.00 | 0.00 | 52 | 1021.7 |
| 20260507113029 | 54 | 177 | 1.0 | 3.0 | 0.00 | 0.00 | 0.00 | 54 | 1021.8 |
| 20260507111524 | 54 | 176 | 1.0 | 3.0 | 0.00 | 0.00 | 0.00 | 54 | 1022.1 |
| 20260507110026 | 53 | 179 | 1.0 | 3.0 | 0.00 | 0.01 | 0.00 | 63 | 1022.1 |
| 20260507104521 | 52 | 190 | 1.0 | 3.0 | 0.00 | 0.01 | 0.00 | 64 | 1022.2 |
| 20260507103021 | 52 | 183 | 1.0 | 3.0 | 0.00 | 0.01 | 0.00 | 65 | 1022.4 |
| 20260507101525 | 51 | 183 | 1.0 | 2.0 | 0.00 | 0.01 | 0.00 | 67 | 1022.5 |
| 20260507100021 | 52 | 181 | 1.0 | 2.0 | 0.00 | 0.01 | 0.00 | 67 | 1022.5 |
| 20260507094504 | 52 | 174 | 0.0 | 2.0 | 0.00 | 0.01 | 0.00 | 67 | 1022.7 |
| 20260507093002 | 53 | 167 | 0.0 | 3.0 | 0.00 | 0.01 | 0.00 | 65 | 1022.9 |
| 20260507091600 | 52 | 181 | 0.0 | 3.0 | 0.00 | 0.01 | 0.00 | 63 | 1023.0 |
| 20260507090058 | 52 | 182 | 1.0 | 3.0 | 0.00 | 0.01 | 0.00 | 63 | 1023.1 |
| 20260507084559 | 51 | 182 | 1.0 | 3.0 | 0.00 | 0.01 | 0.00 | 64 | 1023.3 |
| 20260507083107 | 51 | 179 | 0.0 | 2.0 | 0.00 | 0.01 | 0.00 | 65 | 1023.5 |